TimeMDT,TemperatureF,Dew PointF,Humidity,Sea Level PressureIn,VisibilityMPH,Wind Direction,Wind SpeedMPH,Gust SpeedMPH,PrecipitationIn,Events,Conditions,WindDirDegrees,DateUTC
12:15 AM,41.4,18.9,41,30.26,10.0,Calm,Calm,-,N/A,,Clear,0,2012-10-10 06:15:00
12:35 AM,39.6,19.0,44,30.26,10.0,NW,3.5,-,N/A,,Clear,310,2012-10-10 06:35:00
12:55 AM,38.5,18.7,45,30.26,10.0,Calm,Calm,-,N/A,,Clear,0,2012-10-10 06:55:00
1:15 AM,37.2,20.3,50,30.26,10.0,Calm,Calm,-,N/A,,Clear,0,2012-10-10 07:15:00
1:35 AM,39.6,19.8,45,30.27,10.0,Calm,Calm,-,N/A,,Clear,0,2012-10-10 07:35:00
1:55 AM,38.7,19.8,47,30.27,10.0,Calm,Calm,-,N/A,,Clear,0,2012-10-10 07:55:00
2:15 AM,37.6,20.7,51,30.27,10.0,Calm,Calm,-,N/A,,Clear,0,2012-10-10 08:15:00
2:35 AM,34.9,20.3,55,30.27,10.0,Calm,Calm,-,N/A,,Clear,0,2012-10-10 08:35:00
2:55 AM,34.7,20.3,56,30.27,10.0,Calm,Calm,-,N/A,,Clear,0,2012-10-10 08:55:00
3:15 AM,35.8,20.3,53,30.27,10.0,Calm,Calm,-,N/A,,Clear,0,2012-10-10 09:15:00
3:35 AM,34.3,20.7,57,30.27,10.0,Calm,Calm,-,N/A,,Clear,0,2012-10-10 09:35:00
3:55 AM,35.8,20.7,54,30.27,10.0,Calm,Calm,-,N/A,,Clear,0,2012-10-10 09:55:00
4:15 AM,33.4,20.3,59,30.27,10.0,Calm,Calm,-,N/A,,Clear,0,2012-10-10 10:15:00
4:35 AM,34.2,23.2,64,30.27,10.0,Calm,Calm,-,N/A,,Clear,0,2012-10-10 10:35:00
4:55 AM,32.9,20.3,60,30.27,10.0,Calm,Calm,-,N/A,,Clear,0,2012-10-10 10:55:00
5:15 AM,33.4,21.6,62,30.27,10.0,Calm,Calm,-,N/A,,Clear,0,2012-10-10 11:15:00
5:35 AM,34.0,23.0,64,30.28,10.0,Calm,Calm,-,N/A,,Clear,0,2012-10-10 11:35:00
5:55 AM,31.5,20.7,64,30.28,10.0,Calm,Calm,-,N/A,,Clear,0,2012-10-10 11:55:00
6:15 AM,32.7,20.8,62,30.29,10.0,Calm,Calm,-,N/A,,Clear,0,2012-10-10 12:15:00
6:35 AM,34.5,21.4,59,30.29,10.0,Calm,Calm,-,N/A,,Clear,0,2012-10-10 12:35:00
6:55 AM,30.9,20.5,65,30.29,10.0,Calm,Calm,-,N/A,,Clear,0,2012-10-10 12:55:00
7:15 AM,33.1,21.2,62,30.29,10.0,Calm,Calm,-,N/A,,Clear,0,2012-10-10 13:15:00
7:35 AM,32.2,20.8,63,30.30,10.0,Calm,Calm,-,N/A,,Clear,0,2012-10-10 13:35:00
7:55 AM,33.8,23.2,65,30.31,10.0,Calm,Calm,-,N/A,,Clear,0,2012-10-10 13:55:00
8:15 AM,39.4,22.6,51,30.31,10.0,Calm,Calm,-,N/A,,Clear,0,2012-10-10 14:15:00
8:35 AM,43.7,22.1,42,30.32,10.0,Calm,Calm,-,N/A,,Clear,0,2012-10-10 14:35:00
8:55 AM,46.0,22.1,39,30.32,10.0,Calm,Calm,-,N/A,,Clear,0,2012-10-10 14:55:00
9:15 AM,48.4,22.1,36,30.32,10.0,Calm,Calm,-,N/A,,Clear,0,2012-10-10 15:15:00
9:35 AM,52.2,22.5,31,30.32,10.0,Calm,Calm,-,N/A,,Clear,0,2012-10-10 15:35:00
9:55 AM,55.2,21.7,27,30.32,10.0,Calm,Calm,-,N/A,,Clear,0,2012-10-10 15:55:00
10:15 AM,57.2,20.7,24,30.32,10.0,East,3.5,-,N/A,,Clear,90,2012-10-10 16:15:00
10:55 AM,59.2,20.8,23,30.31,10.0,Calm,Calm,-,N/A,,Clear,0,2012-10-10 16:55:00
11:15 AM,60.8,20.5,21,30.31,10.0,South,4.6,-,N/A,,Clear,180,2012-10-10 17:15:00
11:35 AM,61.2,20.7,21,30.30,10.0,South,5.8,-,N/A,,Clear,170,2012-10-10 17:35:00
11:55 AM,62.4,21.0,20,30.29,10.0,Calm,Calm,-,N/A,Thunderstorm,Clear,0,2012-10-10 17:55:00
12:15 PM,63.9,21.0,19,30.28,10.0,South,4.6,16.1,N/A,,Clear,190,2012-10-10 18:15:00
12:35 PM,65.8,21.0,18,30.27,10.0,South,9.2,20.7,N/A,,Clear,190,2012-10-10 18:35:00
12:55 PM,65.8,20.7,18,30.26,10.0,SW,11.5,21.9,N/A,,Clear,220,2012-10-10 18:55:00
1:15 PM,66.7,19.8,17,30.25,10.0,SW,10.4,25.3,N/A,,Clear,220,2012-10-10 19:15:00
1:35 PM,67.1,19.2,16,30.24,10.0,SSW,13.8,20.7,N/A,,Clear,200,2012-10-10 19:35:00
1:55 PM,68.0,17.6,15,30.23,10.0,SW,12.7,20.7,N/A,,Clear,230,2012-10-10 19:55:00
2:15 PM,67.8,19.4,16,30.21,10.0,SSW,15.0,19.6,N/A,,Clear,210,2012-10-10 20:15:00
2:35 PM,66.7,17.2,15,30.21,10.0,WSW,3.5,-,N/A,,Clear,240,2012-10-10 20:35:00
2:55 PM,68.9,19.8,15,30.20,10.0,SSW,8.1,16.1,N/A,,Clear,200,2012-10-10 20:55:00
3:15 PM,68.4,18.5,15,30.20,10.0,SSW,11.5,16.1,N/A,,Clear,200,2012-10-10 21:15:00
3:35 PM,68.9,18.3,15,30.19,10.0,WSW,12.7,20.7,N/A,,Clear,240,2012-10-10 21:35:00
3:55 PM,68.5,18.1,15,30.19,10.0,WSW,9.2,-,N/A,,Clear,250,2012-10-10 21:55:00
4:15 PM,68.0,18.7,15,30.19,10.0,South,9.2,17.3,N/A,,Clear,190,2012-10-10 22:15:00
4:35 PM,68.4,19.8,16,30.19,10.0,SW,12.7,17.3,N/A,,Clear,230,2012-10-10 22:35:00
4:55 PM,68.2,19.9,16,30.18,10.0,WSW,9.2,16.1,N/A,,Clear,250,2012-10-10 22:55:00
5:15 PM,67.8,19.6,16,30.19,10.0,WSW,8.1,16.1,N/A,,Clear,240,2012-10-10 23:15:00
5:35 PM,67.3,19.8,16,30.19,10.0,SW,9.2,16.1,N/A,,Clear,230,2012-10-10 23:35:00
5:55 PM,66.9,17.8,15,30.19,10.0,SW,9.2,16.1,N/A,,Clear,220,2012-10-10 23:55:00
6:15 PM,65.8,19.9,17,30.19,10.0,SW,6.9,-,N/A,,Clear,220,2012-10-11 00:15:00
6:35 PM,64.6,19.2,18,30.19,10.0,SW,8.1,-,N/A,,Clear,220,2012-10-11 00:35:00
6:55 PM,63.5,19.9,19,30.20,10.0,SW,4.6,-,N/A,,Clear,230,2012-10-11 00:55:00
7:15 PM,57.2,20.7,24,30.20,10.0,Calm,Calm,-,N/A,,Clear,0,2012-10-11 01:15:00
7:35 PM,52.5,21.0,29,30.21,10.0,Calm,Calm,-,N/A,,Clear,0,2012-10-11 01:35:00
7:55 PM,49.6,21.0,32,30.21,10.0,Calm,Calm,-,N/A,,Clear,0,2012-10-11 01:55:00
8:15 PM,50.2,21.0,32,30.22,10.0,Calm,Calm,-,N/A,,Clear,0,2012-10-11 02:15:00
8:35 PM,50.5,21.6,32,30.22,10.0,Calm,Calm,-,N/A,,Clear,0,2012-10-11 02:35:00
8:55 PM,48.4,21.7,35,30.22,10.0,Calm,Calm,-,N/A,,Clear,0,2012-10-11 02:55:00
9:15 PM,48.4,20.7,33,30.22,10.0,Calm,Calm,-,N/A,,Clear,0,2012-10-11 03:15:00
9:35 PM,45.0,21.4,39,30.22,10.0,Calm,Calm,-,N/A,,Clear,0,2012-10-11 03:35:00
9:55 PM,45.3,21.4,39,30.22,10.0,Calm,Calm,-,N/A,,Clear,0,2012-10-11 03:55:00
10:15 PM,45.7,21.6,38,30.22,10.0,Calm,Calm,-,N/A,,Clear,0,2012-10-11 04:15:00
10:35 PM,44.1,23.0,43,30.23,10.0,Calm,Calm,-,N/A,,Clear,0,2012-10-11 04:35:00
10:55 PM,43.9,23.0,44,30.23,10.0,Calm,Calm,-,N/A,Thunderstorm,Thunderstorm,0,2012-10-11 04:55:00
11:15 PM,44.1,22.5,42,30.25,10.0,Calm,Calm,-,N/A,,Clear,0,2012-10-11 05:15:00
11:55 PM,42.3,21.9,44,30.24,10.0,NE,4.6,-,N/A,,Clear,40,2012-10-11 05:55:00